When you browse on this site, cookies collect data to enhance your experience and personalize the content and advertising you see.
Visit our Privacy Policy to learn more. By continuing to use the site, you agree to this use of cookies and data.
EN

Hourly Weather Chistyakovе (Torez)

Today, 12 August, Wednesday

Time Temperature Precipitation Wind Pressure Humidity
00:00 +20°C° 0.2 mm 2 mps 740 mmHg 69%
01:00 +20°C° 0.1 mm 2 mps 739 mmHg 71%
02:00 +20°C° 0.1 mm 1 mps 739 mmHg 73%
03:00 +20°C° 0 mm 1 mps 739 mmHg 76%
04:00 +20°C° 0 mm 1 mps 739 mmHg 76%
05:00 +20°C° 0 mm 1 mps 739 mmHg 77%
06:00 +18°C° 0 mm 0 mps 739 mmHg 77%
07:00 +22°C° 0 mm 1 mps 739 mmHg 69%
08:00 +24°C° 0 mm 1 mps 739 mmHg 61%
09:00 +25°C° 0 mm 2 mps 739 mmHg 54%
10:00 +27°C° 0 mm 2 mps 739 mmHg 48%
11:00 +28°C° 0 mm 3 mps 739 mmHg 43%
12:00 +29°C° 0 mm 3 mps 739 mmHg 37%
13:00 +29°C° 0 mm 3 mps 739 mmHg 37%
14:00 +29°C° 0 mm 3 mps 739 mmHg 38%
15:00 +29°C° 0 mm 3 mps 739 mmHg 38%
16:00 +29°C° 0 mm 3 mps 739 mmHg 39%
17:00 +29°C° 0 mm 3 mps 739 mmHg 41%
18:00 +28°C° 0 mm 3 mps 739 mmHg 42%
19:00 +27°C° 0 mm 3 mps 739 mmHg 47%
20:00 +25°C° 0 mm 3 mps 739 mmHg 51%
21:00 +23°C° 0 mm 4 mps 739 mmHg 55%
22:00 +21°C° 0 mm 4 mps 739 mmHg 62%
23:00 +20°C° 0 mm 4 mps 739 mmHg 68%

Tomorrow, 13 August, Thursday

Time Temperature Precipitation Wind Pressure Humidity
00:00 +19°C° 0 mm 4 mps 739 mmHg 75%
01:00 +18°C° 0 mm 3 mps 739 mmHg 77%
02:00 +17°C° 0 mm 3 mps 739 mmHg 79%
03:00 +17°C° 0 mm 3 mps 739 mmHg 81%
04:00 +16°C° 0 mm 3 mps 739 mmHg 79%
05:00 +16°C° 0 mm 3 mps 740 mmHg 77%
06:00 +14°C° 0 mm 3 mps 740 mmHg 76%
07:00 +17°C° 0 mm 3 mps 740 mmHg 67%
08:00 +19°C° 0 mm 4 mps 740 mmHg 58%
09:00 +20°C° 0 mm 4 mps 740 mmHg 49%
10:00 +21°C° 0 mm 4 mps 740 mmHg 45%
11:00 +23°C° 0 mm 4 mps 740 mmHg 40%
12:00 +25°C° 0 mm 4 mps 740 mmHg 36%
13:00 +25°C° 0 mm 4 mps 740 mmHg 36%
14:00 +26°C° 0 mm 5 mps 740 mmHg 35%
15:00 +26°C° 0 mm 5 mps 740 mmHg 35%
16:00 +25°C° 0 mm 5 mps 740 mmHg 37%
17:00 +25°C° 0 mm 5 mps 740 mmHg 39%
18:00 +23°C° 0 mm 5 mps 740 mmHg 41%
19:00 +21°C° 0 mm 5 mps 740 mmHg 46%
20:00 +19°C° 0 mm 4 mps 740 mmHg 52%
21:00 +18°C° 0 mm 3 mps 741 mmHg 57%
22:00 +17°C° 0 mm 3 mps 741 mmHg 60%
23:00 +16°C° 0 mm 3 mps 741 mmHg 63%

Day after tomorrow, 14 August, Friday

Time Temperature Precipitation Wind Pressure Humidity
00:00 +15°C° 0 mm 2 mps 741 mmHg 65%
01:00 +15°C° 0 mm 2 mps 741 mmHg 67%
02:00 +14°C° 0 mm 2 mps 741 mmHg 69%
03:00 +14°C° 0 mm 2 mps 741 mmHg 70%
04:00 +14°C° 0 mm 2 mps 741 mmHg 72%
05:00 +14°C° 0 mm 2 mps 741 mmHg 73%
06:00 +14°C° 0 mm 1 mps 741 mmHg 74%
07:00 +16°C° 0 mm 2 mps 741 mmHg 66%
08:00 +18°C° 0 mm 2 mps 741 mmHg 58%
09:00 +20°C° 0 mm 3 mps 741 mmHg 50%
10:00 +21°C° 0 mm 3 mps 741 mmHg 46%
11:00 +22°C° 0 mm 3 mps 741 mmHg 43%
12:00 +23°C° 0 mm 4 mps 741 mmHg 39%
13:00 +23°C° 0.1 mm 4 mps 741 mmHg 41%
14:00 +23°C° 0.1 mm 4 mps 741 mmHg 43%
15:00 +22°C° 0.1 mm 4 mps 741 mmHg 45%
16:00 +22°C° 0.3 mm 4 mps 740 mmHg 47%
17:00 +21°C° 0.3 mm 4 mps 740 mmHg 50%
18:00 +21°C° 0.3 mm 3 mps 740 mmHg 53%
19:00 +20°C° 0 mm 3 mps 741 mmHg 54%
20:00 +18°C° 0 mm 3 mps 741 mmHg 56%
21:00 +17°C° 0 mm 3 mps 741 mmHg 57%
22:00 +16°C° 0 mm 3 mps 741 mmHg 59%
23:00 +14°C° 0 mm 3 mps 741 mmHg 61%

15 August, Saturday

Time Temperature Precipitation Wind Pressure Humidity
00:00 +13°C° 0 mm 3 mps 741 mmHg 63%
01:00 +13°C° 0 mm 3 mps 741 mmHg 69%
02:00 +12°C° 0 mm 3 mps 741 mmHg 74%
03:00 +12°C° 0 mm 3 mps 741 mmHg 80%
04:00 +12°C° 0 mm 3 mps 742 mmHg 80%
05:00 +11°C° 0 mm 3 mps 742 mmHg 80%
06:00 +11°C° 0 mm 3 mps 742 mmHg 79%
07:00 +13°C° 0 mm 4 mps 742 mmHg 69%
08:00 +15°C° 0 mm 4 mps 742 mmHg 59%
09:00 +17°C° 0 mm 5 mps 743 mmHg 48%
10:00 +19°C° 0 mm 5 mps 743 mmHg 45%
11:00 +20°C° 0 mm 5 mps 743 mmHg 41%
12:00 +21°C° 0 mm 5 mps 743 mmHg 37%
13:00 +21°C° 0 mm 5 mps 743 mmHg 38%
14:00 +21°C° 0 mm 5 mps 743 mmHg 38%
15:00 +21°C° 0 mm 5 mps 743 mmHg 39%
16:00 +21°C° 0 mm 5 mps 743 mmHg 40%
17:00 +21°C° 0 mm 5 mps 743 mmHg 41%
18:00 +20°C° 0 mm 5 mps 743 mmHg 42%
19:00 +19°C° 0 mm 4 mps 743 mmHg 46%
20:00 +17°C° 0 mm 3 mps 743 mmHg 50%
21:00 +16°C° 0 mm 3 mps 743 mmHg 54%
22:00 +14°C° 0 mm 3 mps 743 mmHg 56%
23:00 +13°C° 0 mm 3 mps 743 mmHg 58%

16 August, Sunday

Time Temperature Precipitation Wind Pressure Humidity
00:00 +14°C° 0 mm 2 mps 743 mmHg 60%
01:00 +12°C° 0 mm 3 mps 743 mmHg 62%
02:00 +12°C° 0 mm 3 mps 743 mmHg 64%
03:00 +12°C° 0 mm 3 mps 743 mmHg 66%
04:00 +12°C° 0 mm 3 mps 743 mmHg 69%
05:00 +12°C° 0 mm 3 mps 743 mmHg 71%
06:00 +11°C° 0 mm 3 mps 743 mmHg 74%
07:00 +14°C° 0 mm 3 mps 743 mmHg 67%
08:00 +17°C° 0 mm 3 mps 743 mmHg 60%
09:00 +19°C° 0 mm 3 mps 743 mmHg 52%
10:00 +21°C° 0 mm 4 mps 743 mmHg 48%
11:00 +22°C° 0 mm 4 mps 743 mmHg 44%
12:00 +23°C° 0 mm 4 mps 743 mmHg 40%
13:00 +23°C° 0 mm 4 mps 743 mmHg 40%
14:00 +23°C° 0 mm 4 mps 743 mmHg 39%
15:00 +25°C° 0 mm 4 mps 743 mmHg 39%
16:00 +23°C° 0 mm 4 mps 743 mmHg 40%
17:00 +23°C° 0 mm 4 mps 743 mmHg 40%
18:00 +23°C° 0 mm 4 mps 742 mmHg 41%
19:00 +21°C° 0 mm 3 mps 743 mmHg 45%
20:00 +20°C° 0 mm 3 mps 743 mmHg 49%
21:00 +18°C° 0 mm 2 mps 743 mmHg 53%
22:00 +17°C° 0 mm 2 mps 743 mmHg 57%
23:00 +17°C° 0 mm 2 mps 743 mmHg 61%

17 August, Monday

Time Temperature Precipitation Wind Pressure Humidity
00:00 +16°C° 0 mm 2 mps 743 mmHg 64%
01:00 +16°C° 0 mm 2 mps 743 mmHg 67%
02:00 +15°C° 0 mm 2 mps 743 mmHg 70%
03:00 +15°C° 0 mm 1 mps 742 mmHg 72%
04:00 +15°C° 0 mm 1 mps 743 mmHg 74%
05:00 +14°C° 0 mm 1 mps 743 mmHg 76%
06:00 +14°C° 0 mm 1 mps 743 mmHg 78%
07:00 +16°C° 0 mm 2 mps 743 mmHg 71%
08:00 +18°C° 0 mm 2 mps 743 mmHg 63%
09:00 +20°C° 0 mm 2 mps 743 mmHg 56%
10:00 +23°C° 0 mm 2 mps 743 mmHg 51%
11:00 +24°C° 0 mm 2 mps 743 mmHg 46%
12:00 +25°C° 0 mm 2 mps 743 mmHg 41%
13:00 +26°C° 0 mm 2 mps 743 mmHg 40%
14:00 +26°C° 0 mm 2 mps 743 mmHg 39%
15:00 +26°C° 0 mm 2 mps 743 mmHg 37%
16:00 +26°C° 0 mm 2 mps 743 mmHg 38%
17:00 +26°C° 0 mm 2 mps 743 mmHg 39%
18:00 +26°C° 0 mm 2 mps 743 mmHg 40%
19:00 +24°C° 0 mm 2 mps 743 mmHg 45%
20:00 +22°C° 0 mm 1 mps 743 mmHg 49%
21:00 +21°C° 0 mm 1 mps 743 mmHg 54%
22:00 +20°C° 0 mm 1 mps 743 mmHg 56%
23:00 +20°C° 0 mm 1 mps 743 mmHg 58%
Show more